Location: Altamira
(10.5079°N, 66.8544°W)
Time: 22:43:18
(UTC+00:00)

Tiangong - Pass Details

Date: 13 December 2022
Orbit: 383 x 386 km, 41.5° (Epoch: 31 January)

Event Time Altitude Azimuth Distance (km) Brightness Sun altitude
Rises 23:39:59 0° 313° (NW) 2,245 2.1 -22.0°
Reaches altitude 10° 23:42:03 10° 313° (NW) 1,394 1.0 -22.4°
Enters shadow 23:43:12 21° 314° (NW) 929 0.0 -22.7°
